Flag for Poland Weather past 2 weeks in Warsaw, Poland

Now
55 °F

Clear.


Feels Like: 55 °F
Forecast: 48 / 70 °F
Wind: 1 mph from North

Location: Warsaw Okecie Airport

Current Time: May 25, 2015 at 12:44:42 AM

Latest Report: May 25, 2015 at 12:00 AM


Visibility: 10 mi

Pressure: 30.04 "Hg

Humidity: 88%

Dew point: 52 °F

Location of WarsawLocation

Historic Weather in Warsaw — Graph

°F

Warsaw temperature yesterday

Maximum temperature yesterday: 68 °F (at 1:00 PM)
Minimum temperature yesterday: 50 °F (at 3:00 AM)
Average temperature yesterday: 58 °F

Past Weeks' High & Low Weather Summary

 TemperatureHumidityPressure
High79 °F (May 19, 2:30 PM)100% (May 12, 1:00 AM)30.36 "Hg (May 12, 1:00 AM)
Low36 °F (May 16, 3:30 AM)23% (May 16, 10:30 AM)29.71 "Hg (May 14, 2:30 PM)
Average56 °F69%30.02 "Hg
* Reported May 9 11:00 PM — May 24 11:00 PM, Warsaw, Weather by CustomWeather, © 2015

Note: Actual official high and low records may vary slightly from our data, if they occured in-between our weather recording intervals... More about our weather records

Advertising

Warsaw weather history for previous 24 hours

 ConditionsComfort  
Time TempWeatherWind HumidityBarometerVisibility
11:00 PM
Sun, May 24
57 °FClear.3 mph77%30.04 "Hg10 mi
10:30 PM57 °FClear.3 mph77%30.04 "Hg10 mi
10:00 PM55 °FPassing clouds.3 mph82%30.04 "HgN/A
9:30 PM57 °FPassing clouds.5 mph77%30.04 "HgN/A
9:00 PM57 °FPassing clouds.5 mph77%30.04 "HgN/A
8:30 PM59 °FSunny.6 mph72%30.04 "Hg10 mi
8:00 PM61 °FSunny.5 mph68%30.04 "Hg10 mi
7:30 PM63 °FSunny.6 mph64%30.04 "Hg10 mi
7:00 PM64 °FPassing clouds.5 mph56%30.04 "HgN/A
6:30 PM64 °FSunny.6 mph60%30.04 "Hg10 mi
6:00 PM64 °FSunny.5 mph60%30.04 "Hg10 mi
5:30 PM64 °FPassing clouds.5 mph56%30.04 "HgN/A
5:00 PM64 °FPassing clouds.5 mph56%30.07 "HgN/A
4:30 PM64 °FPassing clouds.6 mph56%30.07 "HgN/A
4:00 PM64 °FPassing clouds.6 mph56%30.07 "HgN/A
3:30 PM64 °FScattered clouds.7 mph56%30.07 "HgN/A
3:00 PM66 °FScattered clouds.6 mph52%30.07 "HgN/A
2:30 PM66 °FScattered clouds.5 mph52%30.07 "HgN/A
2:00 PM68 °FScattered clouds.3 mph46%30.07 "HgN/A
1:30 PM66 °FScattered clouds.3 mph52%30.07 "HgN/A
1:00 PM68 °FPartly sunny.5 mph46%30.07 "HgN/A
12:30 PM66 °FScattered clouds.3 mph49%30.09 "HgN/A
12:00 PM63 °FPartly sunny.3 mph52%30.09 "HgN/A
11:30 AM64 °FScattered clouds.2 mph49%30.09 "HgN/A
11:00 AM61 °FPassing clouds.2 mph63%30.09 "HgN/A
10:30 AM59 °FPassing clouds.3 mph63%30.09 "HgN/A
10:00 AM59 °FPartly sunny.3 mph63%30.09 "HgN/A
9:30 AM57 °FPartly sunny.3 mph72%30.09 "HgN/A
9:00 AM57 °FPartly sunny.3 mph67%30.07 "HgN/A
8:30 AM55 °FPartly sunny.2 mph72%30.07 "HgN/A
8:00 AM55 °FSunny.2 mph72%30.07 "Hg10 mi
7:30 AM55 °FSunny.No wind72%30.07 "Hg10 mi
7:00 AM54 °FScattered clouds.1 mph88%30.07 "HgN/A
6:30 AM54 °FSunny.2 mph88%30.07 "Hg10 mi
6:00 AM52 °FPartly sunny.1 mph94%30.07 "HgN/A
5:30 AM50 °FPartly sunny.3 mph94%30.04 "HgN/A
5:00 AM50 °FPassing clouds.2 mph94%30.04 "HgN/A
4:30 AM50 °FClear.5 mph94%30.04 "Hg10 mi
4:00 AM50 °FClear.3 mph94%30.04 "Hg10 mi
3:30 AM50 °FClear.5 mph94%30.04 "Hg10 mi
3:00 AM50 °FClear.2 mph94%30.04 "Hg10 mi
2:30 AM52 °FClear.1 mph82%30.04 "Hg10 mi
2:00 AM52 °FClear.3 mph82%30.04 "Hg10 mi
1:30 AM52 °FClear.3 mph82%30.04 "Hg10 mi
1:00 AM52 °FClear.2 mph82%30.04 "Hg10 mi
12:30 AM52 °FLight rain. Clear.No wind82%30.04 "HgN/A
12:00 AM52 °FLight rain. Clear.3 mph82%30.04 "HgN/A
Weather by CustomWeather, © 2015

See weather overviewHow to use our weather pages